This is the latest recevied weather packets stored in our database for station/object KP4OZ. If no packets are shown the sender has not sent any weather packets the latest 10 day(s).
| Time | Temp. | Humidity | Pressure | Rain* | Wind** | Luminosity | Snow |
|---|---|---|---|---|---|---|---|
| 1778075396 | 30.56° C | 62% | 1019.2 hPa | 0 mm | - | - | - |
| 1778075093 | 30.56° C | 62% | 1019.1 hPa | 0 mm | - | - | - |
| 1778074789 | 30° C | 62% | 1019.2 hPa | 0 mm | - | - | - |
| 1778074486 | 31.11° C | 61% | 1019.1 hPa | 0 mm | - | - | - |
| 1778074183 | 31.67° C | 59% | 1019.1 hPa | 0 mm | - | - | - |
| 1778073880 | 31.11° C | 60% | 1018.9 hPa | 0 mm | - | - | - |
| 1778073578 | 31.11° C | 60% | 1019.1 hPa | 0 mm | - | - | - |
| 1778073274 | 31.11° C | 60% | 1019.1 hPa | 0 mm | - | - | - |
| 1778072971 | 31.11° C | 60% | 1019.1 hPa | 0 mm | - | - | - |
| 1778072668 | 31.11° C | 60% | 1019.1 hPa | 0 mm | - | - | - |
| 1778072366 | 31.67° C | 60% | 1019.1 hPa | 0 mm | - | - | - |
| 1778072064 | 31.11° C | 62% | 1019.1 hPa | 0 mm | - | - | - |
| 1778071762 | 30.56° C | 63% | 1018.9 hPa | 0 mm | - | - | - |
| 1778071459 | 30° C | 64% | 1018.7 hPa | 0 mm | - | - | - |
| 1778071157 | 30° C | 66% | 1018.7 hPa | 0 mm | - | - | - |
| 1778070854 | 30° C | 66% | 1018.8 hPa | 0 mm | - | - | - |
| 1778070552 | 30° C | 66% | 1018.9 hPa | 0 mm | - | - | - |
| 1778070248 | 29.44° C | 68% | 1018.9 hPa | 0 mm | - | - | - |
| 1778069947 | 29.44° C | 69% | 1018.8 hPa | 0 mm | - | - | - |
| 1778069643 | 29.44° C | 69% | 1018.6 hPa | 0 mm | - | - | - |
| 1778069340 | 28.89° C | 70% | 1018.7 hPa | 0 mm | - | - | - |
| 1778069038 | 28.89° C | 71% | 1018.7 hPa | 0 mm | - | - | - |
| 1778068735 | 28.33° C | 73% | 1018.6 hPa | 0 mm | - | - | - |
| 1778068433 | 28.33° C | 73% | 1018.7 hPa | 0 mm | - | - | - |
| 1778068131 | 28.33° C | 73% | 1018.7 hPa | 0 mm | - | - | - |
* Rain latest hour (hover to see other rain measurements)
** Current wind speed in m/s (hover to see current wind gust speed)